Regional Weather Roundup
Issued by NWS

Home | Current Version | Previous Version | Graphics & Text | Print | Product List | Glossary Off
Versions: 1 2 3 4 5 6 7 8 9 10 11 12 13 14 15 16 17 18 19 20 21 22 23 24 25 26 27 28 29 30 31 32 33 34 35 36 37 38 39 40 41 42 43 44 45 46 47 48 49 50

000
ASUS43 KTOP 221608
RWRKS

WEATHER ROUNDUP FOR KANSAS
NATIONAL WEATHER SERVICE GOODLAND KS
1100 AM CDT SAT JUL 22 2017

NOTE:  "FAIR" INDICATES FEW OR NO CLOUDS BELOW 12,000 FEET WITH NO
SIGNIFICANT WEATHER AND/OR OBSTRUCTIONS TO VISIBILITY.

KSZ001>006-013>018-027>032-041>047-221700-
NORTHWEST KANSAS

CITY           SKY/WX    TMP DP  RH WIND       PRES   REMARKS
GOODLAND       PTSUNNY   84  60  44 NE12      30.08R
HILL CITY      SUNNY     91  65  41 NE13      29.95R
RUSSELL        SUNNY     90  60  36 CALM      29.88R
$$

KSZ061>065-074>080-084>089-221700-
SOUTHWEST KANSAS

CITY           SKY/WX    TMP DP  RH WIND       PRES   REMARKS
DODGE CITY     SUNNY     87  59  38 W7        29.96S
ELKHART          N/A     83  51  33 N8          N/A
GARDEN CITY    SUNNY     86  58  38 VRB3      29.99S
LIBERAL        SUNNY     86  61  42 W8        30.00S
PRATT          SUNNY     92  61  35 SW10      29.92R
$$

KSZ066>073-081>083-090>101-221700-
SOUTHEAST KANSAS

CITY           SKY/WX    TMP DP  RH WIND       PRES   REMARKS
CHANUTE        SUNNY     94  70  45 SW15      29.89F HX 100
COFFEYVILLE    SUNNY     92  72  51 SW13      29.90F HX  99
HUTCHINSON     SUNNY     96  64  34 SW10      29.87S HX  98
MEDICINE LODGE   N/A     94  63  35 SW10      29.88F HX  95
NEWTON         SUNNY     94  68  42 SW14      29.89R HX  98
PARSONS        SUNNY     92  72  51 SW7       29.92S HX  99
WICHITA INTL   MOSUNNY   94  69  44 SW9       29.88S HX  99
WICHITA JABRA  SUNNY     93  69  45 SW12      29.88S HX  98
WICHITA MCCONL SUNNY     92  68  45 SW13      29.89S HX  95
WINFIELD       SUNNY     94  69  44 SW15      29.90F HX  99
$$

KSZ007>012-019>026-033>040-048>060-102>105-221700-
NORTHEAST KANSAS

CITY           SKY/WX    TMP DP  RH WIND       PRES   REMARKS
CONCORDIA      SUNNY     90  68  48 E5        29.86S
EMPORIA        SUNNY     93  70  46 SW15      29.87S HX  99
LAWRENCE       SUNNY     93  73  52 SW10      29.84S HX 102
MANHATTAN      SUNNY     94  69  44 SW9       29.83F HX  99
MARYSVILLE     SUNNY     91  70  49 N3        29.84F HX  97
OLATHE IND     SUNNY     91  72  53 W16       29.86F HX  98
OLATHE EXE     SUNNY     88  73  61 SW14G22   29.86F HX  95
SALINA         SUNNY     97  61  30 SW9       29.85S HX  97
TOPEKA BILLARD SUNNY     91  73  55 SW8       29.83S HX  99
TOPEKA FORBES  SUNNY     92  72  51 SW13      29.85S HX  99
$$




USA.gov is the U.S. government's official web portal to all federal, state and local government web resources and services.